SILO ALERT LOG
| Silo ID | Alert Type | Alert Message | Silo Type | Points | Depth (mm) | Strength | Temperature (°C) | Humidity (%) | Height (mm) | Volume (㎥) | Weight (t) | Flag | Time |
|---|---|---|---|---|---|---|---|---|---|---|---|---|---|
| WJWJR05 | Humidity | 습도센서 측정값이 80% 초과 | 평 | 79 | 5717 | 2336 | 23.4 | 81.3 | 2012 | 227.56 | 143.864 | 0 | 2026-05-31 10:25:53.000 |
| WJWJR05 | Humidity | 습도센서 측정값이 80% 초과 | 평 | 80 | 5655 | 2273 | 21.9 | 83.8 | 2074 | 234.625 | 148.33 | 0 | 2026-05-31 09:25:57.000 |
| WJWJR01 | Humidity | 습도센서 측정값이 80% 초과 | 평 | 49 | 6841 | 1782 | 22.1 | 80.9 | 798 | 90.291 | 57.082 | 0 | 2026-05-31 09:25:46.000 |
| WJWJR01 | Humidity | 습도센서 측정값이 80% 초과 | 평 | 50 | 6788 | 1831 | 20.4 | 85.7 | 851 | 96.247 | 60.847 | 0 | 2026-05-31 08:25:57.000 |
| WJWJR05 | Humidity | 습도센서 측정값이 80% 초과 | 평 | 80 | 5765 | 2291 | 21 | 84.3 | 1964 | 222.139 | 140.436 | 0 | 2026-05-31 08:25:57.000 |
| WJWJR05 | Humidity | 습도센서 측정값이 80% 초과 | 평 | 80 | 5652 | 2188 | 20.8 | 84.4 | 2077 | 234.915 | 148.513 | 0 | 2026-05-31 07:25:53.000 |
| WJWJR01 | Humidity | 습도센서 측정값이 80% 초과 | 평 | 49 | 6901 | 1811 | 19.1 | 88.3 | 738 | 83.482 | 52.778 | 0 | 2026-05-31 07:25:52.000 |
| WJWJR05 | Humidity | 습도센서 측정값이 80% 초과 | 평 | 79 | 5753 | 2275 | 21 | 84.2 | 1976 | 223.491 | 141.291 | 0 | 2026-05-31 06:25:58.000 |
| WJWJR01 | Humidity | 습도센서 측정값이 80% 초과 | 평 | 48 | 6844 | 1905 | 18.8 | 88.8 | 795 | 89.975 | 56.882 | 0 | 2026-05-31 06:25:51.000 |
| WJWJR05 | Humidity | 습도센서 측정값이 80% 초과 | 평 | 78 | 5627 | 2241 | 21.3 | 84 | 2102 | 237.804 | 150.34 | 0 | 2026-05-31 05:25:56.000 |
| WJWJR01 | Humidity | 습도센서 측정값이 80% 초과 | 평 | 48 | 6842 | 1863 | 19.2 | 88.4 | 797 | 90.165 | 57.002 | 0 | 2026-05-31 05:25:51.000 |
| WJWJR05 | Humidity | 습도센서 측정값이 80% 초과 | 평 | 78 | 5791 | 2295 | 21.8 | 83.5 | 1938 | 219.256 | 138.614 | 0 | 2026-05-31 04:25:56.000 |
| WJWJR01 | Humidity | 습도센서 측정값이 80% 초과 | 평 | 49 | 6820 | 1873 | 19.6 | 87.9 | 819 | 92.698 | 58.604 | 0 | 2026-05-31 04:25:53.000 |
| WJWJR05 | Humidity | 습도센서 측정값이 80% 초과 | 평 | 79 | 5782 | 2306 | 22.2 | 83.1 | 1947 | 220.24 | 139.235 | 0 | 2026-05-31 03:25:59.000 |
| WJWJR01 | Humidity | 습도센서 측정값이 80% 초과 | 평 | 47 | 6898 | 1807 | 20.1 | 87.3 | 741 | 83.833 | 53 | 0 | 2026-05-31 03:25:51.000 |
| WJWJR05 | Humidity | 습도센서 측정값이 80% 초과 | 평 | 79 | 5780 | 2290 | 22.7 | 82.7 | 1949 | 220.524 | 139.416 | 0 | 2026-05-31 02:25:55.000 |
| WJWJR01 | Humidity | 습도센서 측정값이 80% 초과 | 평 | 48 | 6830 | 1858 | 20.6 | 86.7 | 809 | 91.5 | 57.846 | 0 | 2026-05-31 02:25:52.000 |
| WJWJR05 | Humidity | 습도센서 측정값이 80% 초과 | 평 | 78 | 5633 | 2336 | 23.2 | 82.1 | 2096 | 237.14 | 149.92 | 0 | 2026-05-31 01:25:55.000 |
| WJWJR01 | Humidity | 습도센서 측정값이 80% 초과 | 평 | 49 | 6848 | 1811 | 21.2 | 85.7 | 791 | 89.558 | 56.618 | 0 | 2026-05-31 01:25:51.000 |
| WJWJR05 | Humidity | 습도센서 측정값이 80% 초과 | 평 | 79 | 5769 | 2317 | 23.9 | 81.1 | 1960 | 221.695 | 140.156 | 0 | 2026-05-31 00:25:57.000 |
[첫 페이지] [55] [56] [57] [58] 59 [60] [61] [62] [63] [마지막 페이지]